SCP
0 0 0 0 0 0 0 0 0 0 0 0 0 0 0 0 0 0 0 0 0 0 0 1 1 1 1 1 1 1 1 1 1 1 1 1 1 1 0 0 0 0 0 0
0 0 0 0 0 0 0 0 0 0 0 0 0 0 0 0 0 0 0 0 0 0 0 1 1 1 1 1 1 1 1 1 1 1 1 1 1 0 0 0 0 0 0 0
0 0 0 0 0 0 0 0 0 0 0 0 0 0 0 0 0 0 0 0 0 0 1 1 1 1 1 1 1 1 1 1 1 1 1 1 1 0 0 0 0 0 0 0
0 0 0 0 0 0 0 0 0 0 0 0 0 0 0 0 0 0 0 0 0 0 1 1 1 1 1 1 1 1 1 1 1 1 1 1 1 0 0 0 0 0 0 0
0 0 0 0 0 0 0 0 0 0 0 0 0 0 0 0 0 0 0 0 0 0 1 1 1 1 1 1 1 1 1 1 1 1 1 1 1 1 1 1 1 1 1 1
0 0 0 0 0 0 0 0 0 0 0 0 0 0 0 0 0 0 0 0 0 0 1 1 1 1 1 1 1 1 1 1 1 1 1 1 1 1 1 1 1 1 1 1
0 0 0 0 0 0 0 0 0 0 0 0 0 0 0 0 0 0 0 0 0 0 1 1 1 1 1 1 1 1 1 0 1 1 1 1 1 1 1 1 1 1 1 1
0 0 0 0 0 0 0 0 0 0 0 0 0 0 0 0 0 0 0 0 0 0 1 1 1 1 1 1 1 1 0 0 0 0 0 0 0 1 1 1 0 0 1 1
0 0 0 0 0 0 0 0 0 0 0 0 0 0 0 0 0 0 0 0 0 0 0 0 0 0 1 1 0 0 0 0 0 0 0 0 0 0 0 0 0 0 0 0
0 0 0 0 0 0 0 0 0 0 0 0 0 0 0 0 0 0 0 0 0 0 0 0 0 0 0 0 0 0 0 0 0 0 0 0 0 0 0 0 0 0 0 0
0 0 0 0 0 0 0 0 0 0 0 0 0 0 0 0 0 0 0 0 0 0 0 0 0 0 0 0 0 0 0 0 0 0 0 0 0 0 0 0 0 0 0 0
0 0 0 0 0 0 0 0 0 0 0 0 0 0 0 0 0 0 0 0 0 0 0 0 0 0 0 0 0 0 0 0 0 0 0 0 0 0 0 0 0 0 0 0
0 0 0 0 0 0 0 0 0 0 0 0 0 0 0 0 0 0 0 0 0 0 0 0 0 0 0 0 0 0 0 0 0 0 0 0 0 0 0 0 0 0 0 0
0 0 0 0 0 0 0 0 0 0 0 0 0 0 0 0 0 0 0 0 0 0 0 0 0 0 0 0 0 0 0 0 0 0 0 0 0 0 0 0 0 0 0 0
0 0 0 0 0 0 0 0 0 0 0 0 0 0 0 0 0 0 0 0 0 0 0 0 0 0 0 0 0 0 0 0 0 0 0 0 0 0 0 0 0 0 0 0
0 0 0 0 0 0 0 0 0 0 0 0 0 0 0 0 0 0 0 0 0 0 0 0 0 0 0 0 0 0 0 0 0 0 0 0 0 0 0 0 0 0 0 0
0 0 0 0 0 0 0 0 0 0 0 0 0 0 0 0 0 0 0 0 0 0 0 0 0 0 0 0 0 0 0 0 0 0 0 0 0 0 0 0 0 0 0 0
0 0 0 0 0 0 0 0 0 0 0 0 0 0 0 0 0 0 0 0 0 0 0 0 0 0 0 0 0 0 0 0 0 0 0 0 0 0 0 0 0 0 0 0
0 0 0 0 0 0 0 0 0 0 0 0 0 0 0 0 0 0 0 0 0 0 0 0 0 0 0 0 0 0 0 0 0 0 0 0 0 0 0 0 0 0 0 0
0 0 0 0 0 0 0 0 0 0 0 0 0 0 0 0 0 0 0 0 0 0 0 0 0 0 0 0 0 0 0 0 0 0 0 0 0 0 0 0 0 0 0 0
0 0 0 0 0 0 0 0 0 0 0 0 0 0 0 0 0 0 0 0 0 0 0 0 0 0 0 0 0 0 0 0 0 0 0 0 0 0 0 0 0 0 0 0
0 0 0 0 0 0 0 0 0 0 0 0 0 0 0 0 0 0 0 0 0 0 0 0 0 0 0 0 0 0 0 0 0 0 0 0 0 0 0 0 0 0 0 0
0 0 0 0 0 0 0 0 0 0 0 0 0 0 0 0 0 0 0 0 0 0 0 0 0 0 0 0 0 0 0 0 0 0 0 0 0 0 0 0 0 0 0 0
0 0 0 0 0 0 0 0 0 0 0 0 0 0 0 0 0 0 0 0 0 0 0 0 0 0 0 0 0 0 0 0 0 0 0 0 0 0 0 0 0 0 0 0
0 0 0 0 0 0 0 0 0 0 0 0 0 0 0 0 0 0 0 0 0 0 0 0 0 0 0 0 0 0 0 0 0 0 0 0 0 0 0 0 0 0 0 0
0 0 0 0 0 0 0 0 0 0 0 0 0 0 0 0 0 0 0 0 0 0 0 0 0 0 0 0 0 0 0 0 0 0 0 0 0 0 0 0 0 0 0 0
0 0 0 0 0 0 0 0 0 0 0 0 0 0 0 0 0 0 0 0 0 0 0 0 0 0 0 0 0 0 0 0 0 0 0 0 0 0 0 0 0 0 0 0
Wind_Speed
10 7 7 9 10 11 13 13 12 9 8 4 2 2 4 6 9 11 13 14 15 14 14 14 14 14 14 14 14 13 13 13 13 12 11 11 10 10 10 9 9 9 8 8
10 9 9 11 11 11 13 13 13 12 9 2 1 2 4 5 7 10 11 13 14 14 13 14 14 13 13 13 13 13 13 13 12 12 11 11 11 11 10 10 9 9 9 9
9 7 9 12 11 11 11 10 10 10 5 1 1 1 2 3 5 7 9 10 12 13 13 12 12 12 13 13 12 13 13 12 12 11 11 11 11 11 10 10 9 9 10 10
8 7 12 3 2 4 7 7 7 6 4 2 2 0 1 1 2 4 5 6 8 9 11 11 11 11 10 11 12 12 12 11 11 11 11 11 10 10 10 9 9 9 10 10
7 10 9 4 2 3 5 5 2 3 2 1 1 4 4 2 0 1 2 3 4 6 7 8 9 9 10 10 11 11 11 10 10 11 10 10 10 10 9 8 9 9 9 10
7 8 8 1 4 0 4 4 3 1 0 0 3 4 4 4 2 1 1 0 1 3 4 5 6 8 8 8 8 9 9 8 8 8 9 9 9 8 7 7 8 9 9 9
9 8 3 5 3 4 5 3 4 3 2 1 2 5 5 5 5 3 3 3 4 4 5 4 5 6 7 6 6 6 6 6 6 7 7 7 6 6 6 6 6 7 7 8
6 7 2 5 1 1 4 4 3 3 3 4 5 6 6 6 7 6 6 6 6 6 6 6 6 6 5 4 3 4 4 5 5 5 5 5 5 5 5 5 6 7 7 8
1 2 5 3 3 4 2 2 3 3 4 5 6 6 7 8 8 8 8 8 7 7 8 7 7 6 6 4 4 4 4 4 4 4 3 3 4 5 5 5 6 6 6 7
1 3 3 3 2 2 2 4 5 5 5 6 7 8 8 8 8 9 9 9 8 8 9 8 7 7 6 5 4 4 4 3 3 3 3 2 1 2 3 3 4 5 6 6
2 2 3 4 4 4 5 6 7 7 7 7 8 9 9 9 8 8 8 8 8 9 9 9 7 6 5 4 3 4 4 3 2 2 2 1 1 1 3 2 3 5 6 6
4 4 2 4 4 4 6 8 9 9 9 9 9 9 9 9 8 8 8 8 8 8 8 8 7 6 5 4 3 3 3 2 1 1 1 0 1 2 2 4 3 6 7 8
3 3 4 5 5 7 9 10 10 10 10 10 9 9 9 8 8 8 8 8 7 7 7 6 6 5 4 3 3 3 2 2 1 1 1 2 2 3 4 4 7 9 10 11
3 5 7 7 9 10 11 12 12 12 10 10 9 8 8 7 7 7 6 6 6 5 5 5 5 4 4 3 3 2 1 2 1 1 2 3 3 4 5 6 6 6 7 9
6 7 9 10 11 11 11 11 12 11 10 9 8 7 6 5 5 5 4 4 4 4 4 4 3 3 2 2 1 1 2 2 2 3 4 4 4 5 6 7 7 8 8 7
10 12 12 12 12 11 11 11 10 9 8 7 6 5 4 4 3 3 3 2 2 3 3 2 2 2 1 1 1 2 1 1 3 4 5 5 5 6 6 7 8 8 9 9
11 11 11 12 11 10 9 9 8 7 7 6 5 4 3 3 2 2 2 2 2 2 2 2 2 2 2 3 4 4 4 2 5 6 6 6 6 7 8 8 9 9 9 9
11 11 11 10 9 8 8 7 6 6 5 5 4 3 3 3 3 3 3 3 3 3 3 3 3 3 3 4 4 5 6 6 6 6 6 6 7 8 9 9 10 11 10 10
12 12 11 9 8 7 6 6 5 4 3 3 2 2 2 2 2 3 3 4 4 4 3 3 2 5 5 4 5 6 7 8 7 7 7 7 8 9 9 9 10 11 11 11
10 9 8 8 7 6 5 4 3 2 2 3 3 3 3 3 4 4 5 5 4 4 4 4 5 6 6 4 5 7 8 8 8 8 8 9 9 9 9 10 10 11 11 11
8 8 7 6 5 5 4 4 4 3 3 4 4 4 4 5 5 5 6 6 3 4 5 5 6 6 5 6 6 8 8 8 8 8 8 9 9 10 10 10 10 10 10 11
6 6 5 4 4 4 4 4 4 4 4 4 5 5 5 6 6 6 5 4 4 3 6 7 5 5 7 9 9 9 9 9 8 8 8 8 9 9 10 11 10 10 10 10
5 5 5 5 5 4 4 4 4 4 5 5 5 6 7 7 7 7 7 4 5 5 6 6 6 5 7 9 9 9 9 9 9 9 9 9 9 9 9 11 10 10 10 10
5 5 5 5 5 5 5 5 5 5 6 6 5 5 7 7 6 6 6 3 3 5 7 4 3 5 9 9 9 8 8 8 8 9 9 9 9 9 9 9 10 10 10 12
4 5 5 6 6 5 5 6 6 6 7 6 7 6 6 6 6 6 7 7 5 7 7 4 4 6 8 8 8 8 7 7 8 9 9 9 9 9 9 9 10 10 10 10
5 5 5 5 5 6 6 6 6 6 7 7 6 6 6 6 7 6 6 7 8 7 7 7 7 6 7 7 7 7 7 7 6 7 8 9 10 9 9 9 12 10 9 10
5 4 4 5 5 5 6 6 7 7 7 7 8 8 8 8 7 7 8 7 7 7 7 6 6 6 7 7 6 6 6 6 6 7 7 8 8 8 8 10 9 9 9 9
Wind_Direction
261 265 253 243 233 223 234 254 269 274 274 275 246 185 185 189 189 193 192 193 196 198 196 197 197 197 200 200 198 196 194 197 198 198 199 200 200 202 204 209 215 216 222 226
245 240 241 246 245 240 240 252 259 268 271 307 269 188 181 191 196 200 200 202 202 202 200 198 199 199 198 199 195 193 197 201 199 198 198 202 202 204 206 211 219 221 227 233
242 226 238 240 239 242 241 241 254 260 265 266 244 215 198 198 209 213 212 211 209 206 204 201 199 196 196 195 190 192 198 202 198 198 201 205 207 207 209 212 217 225 231 235
245 228 242 264 31 263 253 248 252 265 281 289 301 228 148 169 215 220 220 219 216 210 204 200 195 193 193 187 185 190 195 199 199 202 204 205 209 212 214 218 221 227 234 239
243 239 246 218 189 241 247 244 264 260 264 288 144 175 140 80 122 234 235 228 222 212 198 189 187 186 184 187 185 188 193 198 199 202 205 204 209 213 215 218 225 231 234 239
230 247 247 112 93 47 259 217 81 64 105 231 211 224 98 62 50 33 27 76 168 165 167 164 171 168 173 180 183 189 191 195 196 198 205 208 211 214 216 219 228 238 241 243
234 241 240 76 106 209 242 75 73 57 63 62 51 34 57 60 63 65 68 84 99 107 111 119 137 149 163 169 177 184 181 181 186 191 201 210 213 217 224 227 238 247 253 253
228 236 195 89 156 301 40 69 82 77 77 87 90 89 85 78 74 75 78 83 94 99 95 93 105 122 132 138 143 152 156 160 171 178 195 193 199 210 220 230 235 244 251 258
281 38 68 72 40 44 84 106 102 100 99 107 106 100 93 86 79 76 77 81 86 94 95 89 88 97 103 96 101 120 133 140 149 158 172 184 198 207 215 221 243 254 259 265
259 90 76 68 69 81 94 98 99 103 105 108 106 101 95 90 85 82 79 80 81 84 83 77 76 75 76 80 95 110 114 116 130 141 143 140 225 234 246 252 261 271 274 278
253 78 94 90 77 87 98 103 104 100 99 101 103 97 96 95 89 83 80 77 78 80 80 79 75 73 73 78 100 108 112 120 125 119 105 133 206 289 279 303 315 290 290 292
2 32 13 75 83 99 109 110 107 104 99 96 97 99 97 93 90 87 85 84 84 82 80 81 80 74 72 80 92 102 108 102 102 103 104 261 271 260 229 254 252 247 254 271
355 28 68 93 95 100 106 107 103 98 96 94 90 91 92 91 89 88 87 83 83 83 86 89 92 91 86 89 93 91 83 61 18 12 357 322 309 299 296 264 240 241 241 241
80 99 101 97 98 99 103 104 101 96 90 86 83 80 82 86 88 86 84 87 91 95 96 98 97 93 90 92 96 94 85 100 335 342 328 316 312 302 297 299 299 291 257 236
73 90 103 106 104 102 103 105 102 96 90 85 81 77 75 74 74 74 74 80 87 90 84 81 78 75 76 78 72 27 347 5 354 331 308 305 305 299 299 301 300 300 301 286
97 100 103 102 100 100 100 97 93 89 85 80 75 71 68 69 69 70 65 58 47 51 50 42 35 25 15 329 293 263 249 198 276 297 297 300 303 303 303 302 297 297 299 303
107 104 105 104 100 94 91 91 91 90 83 74 67 61 49 38 30 29 18 11 355 347 331 320 321 326 309 292 289 295 301 271 230 268 289 300 304 304 302 298 297 299 301 308
93 95 97 98 98 96 89 84 77 70 59 50 40 36 28 13 352 342 329 320 307 305 309 312 331 315 295 288 290 296 293 293 293 297 301 302 308 301 298 299 301 302 305 304
95 92 90 87 85 85 83 78 70 56 37 16 356 340 321 314 315 309 302 294 290 289 318 329 324 287 290 298 297 276 288 296 297 296 296 296 287 292 299 302 304 307 307 307
92 88 83 79 73 70 67 59 51 36 6 342 328 317 312 314 309 302 300 290 300 329 331 324 297 292 294 298 293 291 293 294 296 299 298 297 297 299 299 301 304 305 305 304
85 83 78 70 61 50 42 27 7 352 344 330 322 317 315 313 311 307 299 299 336 345 315 284 274 292 305 323 282 286 293 298 299 298 299 300 302 302 301 301 302 302 302 303
57 57 52 45 37 27 16 355 343 335 330 324 323 324 316 309 306 302 294 303 318 358 308 299 308 1 346 312 291 294 296 298 298 299 301 304 305 304 303 303 301 301 302 304
33 26 19 10 359 348 340 332 331 327 322 320 318 317 317 318 314 309 305 325 324 346 309 315 355 355 315 290 292 295 296 297 298 299 300 301 301 302 303 303 303 302 302 303
8 358 354 345 332 319 321 329 329 321 313 304 305 315 310 304 300 302 315 326 315 313 305 330 327 306 288 286 291 293 296 299 300 301 306 308 309 309 307 306 304 303 304 306
346 336 339 332 319 324 327 314 306 303 299 304 308 312 308 313 315 320 318 315 318 298 299 296 258 273 283 294 298 302 303 309 316 316 311 310 310 311 312 310 308 306 306 306
334 324 337 327 325 317 316 318 317 319 318 318 319 324 323 319 314 309 305 308 311 307 301 304 307 295 301 309 313 315 313 314 314 309 312 313 312 314 313 312 312 311 310 309
305 304 299 303 315 323 322 319 317 319 320 321 322 322 318 317 316 318 317 316 317 316 318 318 318 320 325 329 332 328 326 326 322 318 318 318 318 317 317 316 315 314 313 313